Simultaneous Nadir Overpasses (SNOs) Predictions

Prediction of SNOs between METOP-A and NOAA-19 Satellite Orbit:

Table of predicted SNOs for the next 14.0 days since TLE Epoch: 5/18/2018
Index Date (METOP-A) Time (METOP-A) Lat,Lon (METOP-A) SZA (METOP-A ) Date (NOAA-19) Time (NOAA-19) Lat,Lon (NOAA-19) SZA (NOAA-19 ) Distance(km) Time Diff (sec)
1 05/20/2018 08:24:11 -78.62,-116.98 121.26 05/20/2018 08:23:00 -78.65,-118.74 121.30 38.72 71
2 05/20/2018 09:14:54 78.50, 49.70 58.60 05/20/2018 09:13:53 78.48, 49.66 58.57 2.66 61
3 05/20/2018 10:05:36 -78.48,-143.12 121.44 05/20/2018 10:04:56 -78.47,-143.00 121.45 2.96 40
4 05/20/2018 10:56:16 78.48, 24.24 58.56 05/20/2018 10:55:54 78.47, 24.20 58.55 1.27 22
5 05/20/2018 11:46:58 -78.46,-168.58 121.48 05/20/2018 11:46:57 -78.46,-168.46 121.47 2.58 1
6 05/20/2018 12:37:38 78.46, -1.22 58.52 05/20/2018 12:37:55 78.47, -1.26 58.53 1.20 17
7 05/20/2018 13:28:20 -78.44, 165.96 121.52 05/20/2018 13:28:58 -78.45, 166.08 121.49 3.06 38
8 05/20/2018 14:19:00 78.44, -26.68 58.48 05/20/2018 14:19:56 78.46, -26.73 58.51 2.57 56
9 05/20/2018 15:09:44 -78.34, 140.07 121.65 05/20/2018 15:10:56 -78.34, 141.32 121.60 28.15 72
10 05/31/2018 04:33:07 -78.79, -58.26 122.97 05/31/2018 04:32:00 -78.78, -61.52 123.10 70.54 67
11 05/31/2018 05:23:54 78.52, 107.47 56.71 05/31/2018 05:22:49 78.54, 107.39 56.72 2.67 65
12 05/31/2018 06:14:36 -78.50, -85.34 123.33 05/31/2018 06:13:54 -78.53, -85.29 123.30 3.37 42
13 05/31/2018 07:05:16 78.50, 82.00 56.67 05/31/2018 07:04:49 78.50, 82.17 56.67 3.66 27
14 05/31/2018 07:55:57 -78.52,-110.57 123.32 05/31/2018 07:55:54 -78.49,-110.51 123.35 3.74 3
15 05/31/2018 08:46:37 78.52, 56.77 56.68 05/31/2018 08:46:50 78.49, 56.71 56.66 3.16 13
16 05/31/2018 09:37:19 -78.50,-136.04 123.35 05/31/2018 09:37:55 -78.48,-135.97 123.36 2.31 36
17 05/31/2018 10:27:59 78.50, 31.31 56.65 05/31/2018 10:28:51 78.49, 31.24 56.64 1.83 52
18 05/31/2018 11:18:41 -78.48,-161.50 123.39 05/31/2018 11:19:56 -78.47,-161.43 123.38 1.40 75




NCC Satellite Simultaneous Nadir Overpasses (SNOs) Prediction Service
